Location: Kuppenheim
(48.8299°N, 8.2568°E)
Time: 02:05:09
(UTC+00:00)

Envisat - Pass Details

Date: 29 November 2022
Orbit: 763 x 765 km, 98.2° (Epoch: 08 February)

Event Time Altitude Azimuth Distance (km) Brightness Sun altitude
Rises 03:27:47 0° 17° (NNE) 3,246 6.5 -33.5°
Reaches altitude 10° 03:30:09 10° 21° (NNE) 2,315 5.7 -33.1°
Enters shadow 03:32:58 32° 36° (NE) 1,302 4.4 -32.7°
